Regional Weather Roundup
Issued by NWS Upton, NY

Current Version | Previous Version | Graphics & Text | Print | Product List | Glossary Off
Versions: 1 2 3 4 5 6 7 8 9 10 11 12 13 14 15 16 17 18 19 20 21 22 23 24 25 26 27 28 29 30 31 32 33 34 35 36 37 38 39 40 41 42 43 44 45 46 47 48 49 50

000
ASUS41 KOKX 312208
RWROKX

REGIONAL WEATHER ROUNDUP
NATIONAL WEATHER SERVICE NEW YORK NY
600 PM EDT TUE MAR 31 2015

NOTE: "FAIR" INDICATES FEW OR NO CLOUDS BELOW 12,000 FEET WITH NO
SIGNIFICANT WEATHER AND/OR OBSTRUCTIONS TO VISIBILITY.

NYZ071-072-176-178-NJZ106-104-312300-
NEW YORK CITY METRO AREA


CITY           SKY/WX    TMP DP  RH WIND       PRES   REMARKS
CENTRAL PARK   CLOUDY    38  33  82 VRB3      29.78S
LAGUARDIA APRT CLOUDY    38  34  85 N10       29.76F WCI  31
KENNEDY INTL   PTSUNNY   40  34  79 N12       29.77F WCI  33
NEWARK/LIBERTY LGT RAIN  38  34  85 N14       29.77R WCI  30
BRNX BOT. GARD   N/A     36  34  93 N6        29.77R WCI  31
TETERBORO      LGT RAIN  37  34  89 N6        29.76S WCI  32
$$

NYZ177-179-078>081-312300-
LONG ISLAND NEW YORK

CITY           SKY/WX    TMP DP  RH WIND       PRES   REMARKS
FARMINGDALE    CLOUDY    38  34  85 N10       29.75F WCI  31
ISLIP          CLOUDY    38  34  85 N9        29.75F WCI  31
SHIRLEY        CLOUDY    38  34  85 N6        29.78F WCI  33
WESTHAMPTON    LGT RAIN  37  33  85 N6        29.80S WCI  32
MONTAUK POINT    N/A     38  33  82 W7        29.80S WCI  33
$$

NYZ052-065-067-312300-
HUDSON VALLEY

CITY           SKY/WX    TMP DP  RH WIND       PRES   REMARKS
WHITE PLAINS   LGT SNOW  35  33  92 N6        29.75S FOG     WCI  30
NEWBURGH       LGT SNOW  34  34 100 CALM      29.77S
MONTGOMERY     LGT SNOW  33  32  96 CALM      29.76R FOG
POUGHKEEPSIE   CLOUDY    37  33  85 SW3       29.77R
ALBANY         PTSUNNY   43  17  35 N10       29.75R
$$

NJZ001-105-106-008-010-013-015-019>022-104-312300-
NEW JERSEY

CITY           SKY/WX    TMP DP  RH WIND       PRES   REMARKS
NEWARK/LIBERTY LGT RAIN  38  34  85 N14       29.77R WCI  30
TETERBORO      LGT RAIN  37  34  89 N6        29.76S WCI  32
CALDWELL       LGT SNOW  34  31  88 VRB3      29.77S FOG
MORRISTOWN     LGT SNOW  34  34 100 N6        29.78R WCI  29
SOMERVILLE     LGT RAIN  39  33  79 NE8       29.75R WCI  33
SUSSEX         SNOW      33  31  92 CALM      29.77R VSB 1/2
ANDOVER          N/A     33  32  96 CALM      29.75S
TRENTON        LGT RAIN  40  31  70 NE13      29.73R WCI  32
MILLVILLE      CLOUDY    54  38  54 SE3       29.64F
ATLANTIC CITY  CLOUDY    53  33  46 S12       29.67R
WRIGHTSTOWN    CLOUDY    49  34  55 N14       29.68R
TOMS RIVER     PTSUNNY   46  36  66 NE12      29.71R
BELMAR         CLOUDY    43  27  52 E12G17    29.73R
$$

PAZ047>061-062-071-312300-
EASTERN PENNSYLVANIA

CITY           SKY/WX    TMP DP  RH WIND       PRES   REMARKS
PHILADELPHIA   LGT RAIN  50  33  52 N20       29.69R
ALLENTOWN      LGT SNOW  36  32  87 NE9       29.73F FOG     WCI  29
SCRANTON       LGT SNOW  34  31  88 NE6       29.74S VSB 3/4 WCI  29
$$

CTZ002-004>006-009-010-012-RIZ004-006-007-MAZ004-011-015-312300-
SOUTHERN NEW ENGLAND
 IN CT

CITY           SKY/WX    TMP DP  RH WIND       PRES   REMARKS
BRADLEY INTL   CLOUDY    46  23  40 W7        29.73R
HARTFORD       CLOUDY    43  26  51 SW6       29.76R
DANBURY        CLOUDY    34  30  85 CALM      29.78R FOG
WTRBRY/OXFORD  LGT SNOW  36  27  69 CALM      29.77R FOG
BRIDGEPORT     LGT RAIN  37  36  96 CALM      29.78F
MERIDEN        LGT RAIN  38  33  82 VRB3      29.78R
NEW HAVEN      LGT RAIN  37  34  89 SW3       29.78S
CHESTER        LGT RAIN  36  34  93 SW3       29.77S
GROTON         LGT RAIN  36  35  96 W10       29.78R WCI  28
WILLIMANTIC    CLOUDY    44  26  49 SW6       29.74S

 IN RI

CITY           SKY/WX    TMP DP  RH WIND       PRES   REMARKS
PROVIDENCE     CLOUDY    46  24  42 SW10      29.74R
BLOCK ISLAND   CLOUDY    37  32  81 MISG      29.79R
WESTERLY       LGT RAIN  37  34  89 W10G18    29.78R WCI  30

 IN MA

CITY           SKY/WX    TMP DP  RH WIND       PRES   REMARKS
BOSTON         CLOUDY    48  21  34 W10       29.72R
WORCESTER      CLOUDY    43  18  36 W9        29.69S
WESTFIELD      CLOUDY    45  22  40 W10       29.72S
PROVINCETOWN   CLOUDY    43  30  61 SW5       29.73R
NANTUCKET      CLOUDY    40  31  70 W16       29.77R WCI  31
$$

ANZ330-335-338-340-345-350-353-355-312300-
COASTAL MARINE OBSERVATIONS


STATION/POSITION TIME  SKY/WX   TEMP    WIND        PRES    VSBY  WAVE
                                AIR SEA DIR/SP/G                  HT/PER
                 (UTC)          (F)     (DEG/KT/KT) (MB)    (MI)  (FT/S)
NY HARB ENTRANCE 2150            38 39   50/ 14/ 16 1006.8          2/ 7
4S FIRE IS       2103               37                N/A           3/ 7
20S FIRE ISLAND  2050               39              1008.5          3/ 7
23SW MTP         2150                                 N/A           3/ 8
HUDSON CANYON    NOT AVBL
EXECUTION ROCKS  NOT AVBL
WESTERN LI SOUND NOT AVBL
CENTRAL LI SOUND NOT AVBL
EASTERN LI SOUND NOT AVBL
ROBBINS REEF     2100            37      30/ 12/ 13 1006.2
$$


>>>>>>>>>>>>>>>>>>>>>>>>>>>> KEY <<<<<<<<<<<<<<<<<<<<<<<<<<<
>                                                          <
>     SKY/WX - SKY CONDITION/PRESENT WEATHER               <
>     TMP    - TEMPERATURE IN FAHRENHEIT                   <
>     DP     - DEWPOINT IN FAHRENHEIT                      <
>     RH     - RELATIVE HUMIDITY IN PERCENT                <
>     WIND   - DIRECTION AND SPEED IN MPH                  <
>     PRES   - MEAN SEA LEVEL PRESSURE IN INCHES OF HG     <
>     WCI    - WIND CHILL INDEX                            <
>     VSB    - VISIBILITY IN MILES                         <
>     HX     - HEAT INDEX                                  <
>     TC     - TEMPERATURE IN CELSIUS                      <
>     VRB    - VARIABLE WIND DIRECTION                     <
>                                                          <
>>>>>>>>>>>>>>>>>>>>>>>>>>>> KEY <<<<<<<<<<<<<<<<<<<<<<<<<<<





USA.gov is the U.S. government's official web portal to all federal, state and local government web resources and services.